This demonstration page uses our WeatherBlox Daily Observations layout. Learn more.

Left ArrowRight Arrow

Hourly Observations for January 11, 2017

Temp ( °F °C ) Dew Point ( °F °C ) Humidity (%) Winds ( mph kmh ) Pressure ( in mb ) Visibility ( mi km ) Precip ( " mm )
12:58 am 00:58 Clear 30 -1.1 28 -2.2 92 92 ESE 10 17 29.76 1008 10 16 0.00 0.00
1:58 am 01:58 Clear 31 -0.3 29 -1.6 91 91 SE 9 15 29.74 1007 10 16 0.00 0.00
2:58 am 02:58 Clear 33 0.7 30 -1.1 88 88 Calm 29.73 1007 10 16 0.00 0.00
3:58 am 03:58 Clear 31 -0.3 30 -1.1 94 94 ESE 6 9 29.71 1006 10 16 0.00 0.00
4:58 am 04:58 Clear 30 -1.1 30 -1.2 99 99 ESE 7 11 29.69 1005 10 16 0.00 0.00
5:58 am 05:58 Mostly Clear 33 0.3 32 -0.1 97 97 SE 8 13 29.66 1004 10 16 0.00 0.00
6:58 am 06:58 Mostly Clear 32 0.2 32 -0.1 98 98 SE 5 7 29.64 1004 10 16 0.00 0.00
7:58 am 07:58 Sunny 32 0 32 -0.1 99 99 Calm 29.68 1005 10 16 0.00 0.00
8:58 am 08:58 Partly Cloudy 34 1.3 33 0.8 97 97 NW 7 11 29.70 1006 10 16 0.00 0.00
9:58 am 09:58 Partly Cloudy 25 -3.8 22 -5.7 87 87 NW 18 30 29.73 1007 10 16 0.00 0.00
10:58 am 10:58 Sunny 23 -4.9 19 -7.5 82 82 NNW 13 20 29.74 1007 10 16 0.00 0.00
11:37 am 11:37 Mostly Cloudy 23 -5 19 -7 86 86 NNW 13 20 29.77 1008 10 16 0.00 0.00
11:58 am 11:58 Cloudy 24 -4.5 19 -7.3 81 81 NNW 14 22 29.75 1007 10 16 0.00 0.00
12:37 pm 12:37 Cloudy 21 -6 16 -9 80 80 NNW 13 20 29.80 1009 10 16 0.00 0.00
12:45 pm 12:45 Cloudy with Drizzle 21 -6 16 -9 80 80 NNW 15 24 29.80 1009 10 16 0.00 0.00
12:58 pm 12:58 Cloudy with Light Snow 20 -6.7 15 -9.6 80 80 NNW 14 22 29.79 1009 10 16 0.00 0.03
1:58 pm 13:58 Mostly Cloudy with Light Snow 19 -7.3 13 -10.5 78 78 NNW 15 24 29.81 1010 7 11 0.00 0.03
2:58 pm 14:58 Mostly Cloudy with Light Snow 20 -6.9 12 -10.9 73 73 N 12 19 29.85 1011 5 8 0.00 0.03
3:58 pm 15:58 Mostly Cloudy 19 -7.4 10 -12 70 70 N 12 19 29.87 1012 10 16 0.00 0.03
4:58 pm 16:58 Partly Cloudy 19 -7.4 10 -12.4 68 68 N 12 19 29.91 1013 10 16 0.00 0.00
5:58 pm 17:58 Partly Cloudy 17 -8.2 9 -12.9 69 69 N 9 15 29.91 1013 10 16 0.00 0.00
6:58 pm 18:58 Clear 16 -8.9 8 -13.4 70 70 N 8 13 29.97 1015 10 16 0.00 0.00
7:58 pm 19:58 Clear 16 -9.1 8 -13.1 73 73 N 9 15 30.00 1016 10 16 0.00 0.00
8:58 pm 20:58 Mostly Clear 15 -9.4 7 -13.9 70 70 NNW 10 17 29.99 1016 10 16 0.00 0.00
9:58 pm 21:58 Partly Cloudy 14 -9.9 7 -13.7 74 74 N 13 20 30.00 1016 10 16 0.00 0.00
10:58 pm 22:58 Mostly Cloudy 14 -10 7 -13.9 73 73 N 9 15 30.00 1016 10 16 0.00 0.00
11:58 pm 23:58 Clear 13 -10.5 5 -15 70 70 N 8 13 30.04 1017 10 16 0.00 0.00

Powered by AerisWeather